This is the latest recevied weather packets stored in our database for station/object N4VTB-13. If no packets are shown the sender has not sent any weather packets the latest 10 day(s).
| Time | Temp. | Humidity | Pressure | Rain* | Wind** | Luminosity | Snow |
|---|---|---|---|---|---|---|---|
| 1777769495 | 22.78° C | 58% | 1014.3 hPa | 0 mm | - | 200 W/m² | - |
| 1777768875 | 22.78° C | 57% | 1014.4 hPa | 0 mm | - | 72 W/m² | - |
| 1777761717 | 22.22° C | 60% | 1015.4 hPa | 0 mm | - | 58 W/m² | - |
| 1777758717 | 22.22° C | 61% | 1016 hPa | 0 mm | - | 80 W/m² | - |
| 1777741276 | 14.44° C | 79% | 1018.2 hPa | 0 mm | - | 271 W/m² | - |
| 1777740677 | 14.44° C | 80% | 1018.2 hPa | 0 mm | - | 243 W/m² | - |
| 1777740076 | 14.44° C | 79% | 1018.2 hPa | 0 mm | - | 267 W/m² | - |
| 1777738876 | 13.33° C | 83% | 1018 hPa | 0 mm | - | 302 W/m² | - |
| 1777736476 | 12.22° C | 84% | 1017.6 hPa | 0 mm | - | 162 W/m² | - |
| 1777734676 | 11.67° C | 87% | 1017.7 hPa | 0 mm | - | 114 W/m² | - |
| 1777732276 | 10.56° C | 90% | 1017.2 hPa | 0 mm | - | 64 W/m² | - |
| 1777729276 | 10° C | 90% | 1017.4 hPa | 0 mm | - | 19 W/m² | - |
| 1777726276 | 10° C | 89% | 1017.4 hPa | 0 mm | - | 0 W/m² | - |
| 1777717876 | 10° C | 86% | 1017.4 hPa | 0 mm | - | 0 W/m² | - |
| 1777717276 | 10° C | 86% | 1017.3 hPa | 0 mm | - | 0 W/m² | - |
| 1777715476 | 10.56° C | 84% | 1017.6 hPa | 0 mm | - | 0 W/m² | - |
| 1777714876 | 10.56° C | 84% | 1017.6 hPa | 0 mm | - | 0 W/m² | - |
| 1777711876 | 11.11° C | 83% | 1017.5 hPa | 0 mm | - | 0 W/m² | - |
| 1777707675 | 11.67° C | 83% | 1017.6 hPa | 0 mm | - | 0 W/m² | - |
| 1777703496 | 12.22° C | 74% | 1017.4 hPa | 0 mm | - | 0 W/m² | - |
| 1777702876 | 12.22° C | 76% | 1017.5 hPa | 0 mm | - | 0 W/m² | - |
| 1777701676 | 12.22° C | 76% | 1017.2 hPa | 0 mm | - | 0 W/m² | - |
| 1777698076 | 13.33° C | 74% | 1017 hPa | 0 mm | - | 0 W/m² | - |
| 1777695076 | 14.44° C | 72% | 1016.6 hPa | 0 mm | - | 0 W/m² | - |
| 1777693876 | 15° C | 70% | 1016.5 hPa | 0 mm | - | 0 W/m² | - |
* Rain latest hour (hover to see other rain measurements)
** Current wind speed in m/s (hover to see current wind gust speed)